Flight Information

DEPARTURE
EUGENE, OR
Elevation:
373
Runways:
16L/34R - 6000x150 - ASPH-G
16R/34L - 8009x150 - ASPH-G
Active PE Departure:
16L - 16R
Current PE ATIS:
B
Altimeter:
30.15
Remarks:
SIMULTANEOUS APPROACHES TO PARALLEL RUNWAYS IN USE.
ATIS:
125.225 541-607-4699
Clearance Delivery:
121.7
Ground:
121.7
Tower:
EUGENE TOWER 118.9 RY 16R/34L 124.15 RY 16L/34R
DESTINATION
,
Elevation:
TPA:
1000 (est.)


6788.9 NM66° True-18° Var47° HDG

Flight Plan:
(click to file on line)

1. Type
2. Aircraft Identification
3. Aircraft Type / Special Equipment
4. True Airspeed
kts
5. Departure Airport
(ICAO code)
6. Arriving Airport
(ICAO code)
7. Cruising Altitude
ft
8. Alternate Airport
(ICAO code)
9. Route of Flight
10. Remarks


00:00:00 Departure ATIS: Destination ATIS:

Clearance Limit:
Route:
Altitude: Expect in minutes
Frequency:
Transponder: (7500 Hijack / 7600 Lost Comms / 7700 Emergency)


KEUG 211554Z 35005KT 10SM FEW250 13/11 A3015 RMK AO2 SLP208 T01330106
Time: 2021-09-21T15:54:00Z
1632242297
Winds: 350 @ 5 kts
Visibility: 10.0 sm
Clouds (AGL): FEW 25000
Temperature: 13.3 C
Dew Point: 10.6 C
Pressure: 30.15059 in Hgbr


Notes:

Data extracted from FAA Digital Chart Supplement. Effective: 0901Z Thursday, AUG 12, 2021 to 0901Z Thursday, OCT 7, 2021
Current ATIS data is provided courtisy of PilotEdge.